User: anonymous   Login
Location: Unspecified
(0.0000°N, 0.0000°E)
Time: 15:25:11
(UTC+00:00)
Language:

LO-87 - Orbit

View from above orbital plane
View from above orbital plane
View from above satellite
View from above satellite

Ground track
Ground track

The orbit data is extracted from the following two-line orbital elements,

1 41557U 16033B   17229.34483011  .00001478  00000-0  58070-4 0  9994
2 41557  97.4608 308.8601 0015184 146.4831 213.7371 15.27206834 67768
Epoch (UTC): 17 August 2017 08:16:33
Eccentricity: 0.0015184
inclination: 97.4608°
perigee height: 474 km
apogee height: 494 km
right ascension of ascending node: 308.8601°
argument of perigee: 146.4831°
revolutions per day: 15.27206834
mean anomaly at epoch: 213.7371°
orbit number at epoch: 6776

The dashed part of the orbit path shows where the satellite is in the earth's shadow,  

DLR